Weather History for 06240 - May, 2013

Change the Weather History Date:

Friday, May 10, 2013

  Actual Average Record
Temperature  
Mean Temperature 54 °F -  
Max Temperature 61 °F 63 °F - ()
Min Temperature 47 °F 48 °F - ()
Degree Days  
Heating Degree Days 11    
Growing Degree Days 4 (Base 50)    
Moisture  
Dew Point 45 °F    
Average Humidity 68    
Maximum Humidity 94    
Minimum Humidity 50    
Precipitation  
Precipitation 0.00 in - - ()
Sea Level Pressure  
Sea Level Pressure 29.85 in    
Wind  
Wind Speed 17 mph ()    
Max Wind Speed 28 mph    
Max Gust Speed 39 mph    
Visibility 7.4 miles    
Events Rain    
T = Trace of Precipitation, MM = Missing Value Source: Averaged Metar Reports

Daily Weather History Graph

Daily Weather History Graph

Search for Another Location

Airport or City:

Trip Planner

Search our weather history database for the weather conditions in past years. The results will help you decide how hot, cold, wet, or windy it might be!

Date:

Astronomy

May. 10, 2013 Rise Set
Actual Time 5:53 AM CEST 9:21 PM CEST
Civil Twilight 5:12 AM CEST 10:03 PM CEST
Nautical Twilight 4:16 AM CEST 11:00 PM CEST
Astronomical Twilight 2:56 AM CEST 12:22 AM CEST
Moon 6:07 AM CEST (5/10) 9:59 PM CEST (5/10)
Length of Visible Light 16h 51m
Length of Day
15h 28m
New Moon, 0% of the Moon is Illuminated
May 10
New Moon
May 18
First Quarter
May 25
Full
May 31
Last Quarter
Jun 8
New

Hourly Weather History & Observations

Time (CEST) Temp. Dew Point Humidity Pressure Visibility Wind Dir Wind Speed Gust Speed Precip Events Conditions
12:25 AM 51.8 °F 41.0 °F 67% 29.83 in - SW 9.2 mph - N/A   Clear
12:55 AM 51.8 °F 42.8 °F 71% 29.80 in - South 8.1 mph - N/A   Clear
1:25 AM 51.8 °F 41.0 °F 67% 29.80 in - South 9.2 mph - N/A   Clear
1:55 AM 53.6 °F 41.0 °F 62% 29.80 in - South 11.5 mph - N/A   Clear
2:00 AM 53 °F 41 °F 52% 29.81 in 22 mi South 11.2 mph - -   Partly Cloudy
2:25 AM 53.6 °F 39.2 °F 58% 29.80 in - SSW 17.3 mph - N/A   Clear
2:55 AM 53.6 °F 39.2 °F 58% 29.77 in - SSW 19.6 mph - N/A   Clear
3:25 AM 53.6 °F 39.2 °F 58% 29.77 in 6.2 mi SSW 23.0 mph - N/A Rain Light Rain
3:55 AM 53.6 °F 41.0 °F 62% 29.77 in 6.2 mi SSW 19.6 mph - N/A   Mostly Cloudy
4:25 AM 53.6 °F 42.8 °F 67% 29.77 in 6.2 mi SSW 23.0 mph - N/A   Mostly Cloudy
4:55 AM 53.6 °F 41.0 °F 62% 29.77 in 6.2 mi SW 23.0 mph - N/A   Mostly Cloudy
5:00 AM 53 °F 42 °F 57% 29.77 in 19 mi SW 24.6 mph - - Rain Rain
5:25 AM 51.8 °F 44.6 °F 76% 29.74 in 6.2 mi SW 21.9 mph - N/A Rain Light Rain
5:55 AM 50.0 °F 46.4 °F 87% 29.77 in 6.2 mi SW 19.6 mph - N/A Rain Light Rain
6:25 AM 50.0 °F 46.4 °F 87% 29.77 in 6.2 mi SSW 19.6 mph - N/A Rain Light Drizzle
6:55 AM 50.0 °F 48.2 °F 94% 29.77 in 6.2 mi SSW 19.6 mph - N/A   Mostly Cloudy
7:25 AM 50.0 °F 46.4 °F 87% 29.77 in 6.2 mi SSW 19.6 mph - N/A   Scattered Clouds
7:55 AM 51.8 °F 46.4 °F 82% 29.77 in 6.2 mi SSW 19.6 mph - N/A   Mostly Cloudy
8:00 AM 52 °F 47 °F 77% 29.79 in 17 mi SSW 20.1 mph - - Rain Drizzle
8:25 AM 51.8 °F 46.4 °F 82% 29.77 in 6.2 mi SW 19.6 mph - N/A   Mostly Cloudy
8:55 AM 51.8 °F 46.4 °F 82% 29.77 in 6.2 mi SW 24.2 mph - N/A   Mostly Cloudy
9:25 AM 53.6 °F 46.4 °F 77% 29.80 in 6.2 mi SW 23.0 mph - N/A   Mostly Cloudy
9:55 AM 53.6 °F 44.6 °F 72% 29.80 in 6.2 mi SW 26.5 mph - N/A   Scattered Clouds
10:25 AM 55.4 °F 46.4 °F 72% 29.80 in 6.2 mi WSW 24.2 mph - N/A   Scattered Clouds
10:55 AM 57.2 °F 46.4 °F 67% 29.83 in 6.2 mi WSW 26.5 mph - N/A   Partly Cloudy
11:00 AM 56 °F 46 °F 61% 29.84 in 13 mi WSW 24.6 mph - -   Overcast
11:25 AM 55.4 °F 46.4 °F 72% 29.83 in 6.2 mi WSW 23.0 mph 39.1 mph N/A   Scattered Clouds
11:55 AM 59.0 °F 48.2 °F 67% 29.83 in 6.2 mi WSW 24.2 mph - N/A   Scattered Clouds
12:25 PM 57.2 °F 46.4 °F 67% 29.86 in 6.2 mi WSW 27.6 mph - N/A   Scattered Clouds
12:55 PM 57.2 °F 46.4 °F 67% 29.86 in 6.2 mi WSW 27.6 mph - N/A   Partly Cloudy
1:25 PM 59.0 °F 46.4 °F 63% 29.86 in 6.2 mi WSW 26.5 mph - N/A   Partly Cloudy
1:55 PM 59.0 °F 46.4 °F 63% 29.86 in 6.2 mi WSW 25.3 mph 36.8 mph N/A   Partly Cloudy
2:00 PM 60 °F 46 °F 50% 29.89 in 16 mi WSW 24.6 mph - -   Partly Cloudy
2:25 PM 59.0 °F 44.6 °F 59% 29.89 in 6.2 mi WSW 25.3 mph - N/A   Partly Cloudy
2:55 PM 60.8 °F 46.4 °F 59% 29.89 in 6.2 mi WSW 24.2 mph - N/A   Partly Cloudy
3:25 PM 60.8 °F 46.4 °F 59% 29.89 in 6.2 mi WSW 25.3 mph - N/A   Partly Cloudy
3:55 PM 60.8 °F 46.4 °F 59% 29.89 in 6.2 mi WSW 24.2 mph - N/A   Partly Cloudy
4:25 PM 59.0 °F 46.4 °F 63% 29.89 in 6.2 mi SW 27.6 mph - N/A   Partly Cloudy
4:55 PM 59.0 °F 46.4 °F 63% 29.89 in 6.2 mi WSW 25.3 mph - N/A   Partly Cloudy
5:00 PM 59 °F 46 °F 52% 29.91 in 11 mi WSW 26.8 mph - -   Mostly Cloudy
5:25 PM 57.2 °F 46.4 °F 67% 29.89 in 6.2 mi WSW 23.0 mph - N/A   Partly Cloudy
5:55 PM 57.2 °F 44.6 °F 63% 29.92 in 6.2 mi SW 21.9 mph - N/A   Partly Cloudy
6:25 PM 55.4 °F 46.4 °F 72% 29.92 in 6.2 mi WSW 19.6 mph - N/A   Partly Cloudy
6:55 PM 55.4 °F 44.6 °F 67% 29.92 in 6.2 mi SW 25.3 mph - N/A   Scattered Clouds
7:25 PM 55.4 °F 44.6 °F 67% 29.92 in 6.2 mi SW 20.7 mph - N/A   Scattered Clouds
7:55 PM 53.6 °F 44.6 °F 72% 29.92 in 6.2 mi SW 20.7 mph - N/A   Mostly Cloudy
8:00 PM 54 °F 44 °F 59% 29.94 in 12 mi SW 17.9 mph - -   Partly Cloudy
8:25 PM 53.6 °F 44.6 °F 72% 29.92 in 6.2 mi SW 18.4 mph - N/A   Mostly Cloudy
8:55 PM 53.6 °F 42.8 °F 67% 29.92 in 6.2 mi SW 16.1 mph - N/A   Mostly Cloudy
9:25 PM 53.6 °F 44.6 °F 72% 29.95 in 6.2 mi SW 15.0 mph - N/A   Mostly Cloudy
9:55 PM 53.6 °F 42.8 °F 67% 29.95 in 6.2 mi SW 17.3 mph - N/A   Mostly Cloudy
10:25 PM 53.6 °F 44.6 °F 72% 29.95 in - SW 15.0 mph - N/A   Clear
10:55 PM 53.6 °F 44.6 °F 72% 29.95 in - SSW 13.8 mph - N/A   Clear
11:00 PM 53 °F 44 °F 63% 29.97 in 11 mi SSW 13.4 mph - -   Overcast
11:25 PM 53.6 °F 44.6 °F 72% 29.95 in - SSW 12.7 mph - N/A   Clear
11:55 PM 51.8 °F 44.6 °F 76% 29.95 in - SSW 13.8 mph - N/A   Clear